• In Deutschland
  • Länderverzeichnis
  • Für 7 Tage
  • Wassertemperatur
  • Satellitenkarten
  • Wetterkarte
  • Widgets
  • user-avatar
    Anmelden

    Stündliche Wetter Lihomoste

    Heute, 23 April, Montag

    Zeit Temperatur Niederschläge Wind Luftdruck Luftfeuchtigkeit
    00:00 +3°C° 0 mm 2 m/S 740 mmHg 75%
    01:00 +3°C° 0 mm 2 m/S 740 mmHg 75%
    02:00 +2°C° 0 mm 2 m/S 740 mmHg 74%
    03:00 +1°C° 0 mm 2 m/S 741 mmHg 75%
    04:00 +1°C° 0 mm 2 m/S 741 mmHg 76%
    05:00 -1°C° 0 mm 2 m/S 741 mmHg 78%
    06:00 +2°C° 0 mm 2 m/S 742 mmHg 68%
    07:00 +3°C° 0 mm 2 m/S 742 mmHg 59%
    08:00 +3°C° 0 mm 3 m/S 742 mmHg 48%
    09:00 +4°C° 0 mm 3 m/S 742 mmHg 45%
    10:00 +5°C° 0 mm 3 m/S 743 mmHg 42%
    11:00 +7°C° 0 mm 3 m/S 743 mmHg 39%
    12:00 +7°C° 0 mm 3 m/S 743 mmHg 38%
    13:00 +8°C° 0 mm 3 m/S 742 mmHg 36%
    14:00 +9°C° 0 mm 2 m/S 742 mmHg 34%
    15:00 +9°C° 0 mm 2 m/S 742 mmHg 36%
    16:00 +9°C° 0 mm 2 m/S 742 mmHg 37%
    17:00 +9°C° 0 mm 2 m/S 742 mmHg 38%
    18:00 +7°C° 0 mm 2 m/S 742 mmHg 43%
    19:00 +7°C° 0 mm 1 m/S 742 mmHg 48%
    20:00 +5°C° 0 mm 1 m/S 742 mmHg 53%
    21:00 +5°C° 0 mm 1 m/S 742 mmHg 55%
    22:00 +4°C° 0 mm 1 m/S 742 mmHg 56%
    23:00 +4°C° 0 mm 1 m/S 742 mmHg 57%

    Morgen, 24 April, Dienstag

    Zeit Temperatur Niederschläge Wind Luftdruck Luftfeuchtigkeit
    00:00 +3°C° 0 mm 2 m/S 742 mmHg 59%
    01:00 +2°C° 0 mm 2 m/S 742 mmHg 60%
    02:00 +2°C° 0 mm 2 m/S 742 mmHg 62%
    03:00 +2°C° 0 mm 2 m/S 742 mmHg 63%
    04:00 +2°C° 0 mm 2 m/S 742 mmHg 64%
    05:00 +2°C° 0 mm 2 m/S 741 mmHg 65%
    06:00 +3°C° 0 mm 3 m/S 741 mmHg 62%
    07:00 +4°C° 0 mm 3 m/S 741 mmHg 59%
    08:00 +7°C° 0 mm 3 m/S 741 mmHg 56%
    09:00 +7°C° 0 mm 4 m/S 740 mmHg 56%
    10:00 +8°C° 0 mm 4 m/S 740 mmHg 57%
    11:00 +10°C° 0 mm 4 m/S 740 mmHg 57%
    12:00 +9°C° 0 mm 5 m/S 740 mmHg 59%
    13:00 +10°C° 0 mm 5 m/S 739 mmHg 61%
    14:00 +10°C° 0 mm 5 m/S 739 mmHg 63%
    15:00 +10°C° 0,1 mm 5 m/S 738 mmHg 67%
    16:00 +11°C° 0,1 mm 4 m/S 738 mmHg 71%
    17:00 +11°C° 0,1 mm 3 m/S 738 mmHg 75%
    18:00 +10°C° 0,2 mm 3 m/S 738 mmHg 81%
    19:00 +9°C° 0,2 mm 3 m/S 737 mmHg 86%
    20:00 +9°C° 0,2 mm 3 m/S 737 mmHg 91%
    21:00 +8°C° 0 mm 3 m/S 737 mmHg 93%
    22:00 +8°C° 0 mm 3 m/S 737 mmHg 94%
    23:00 +7°C° 0 mm 2 m/S 737 mmHg 96%

    übermorgen, 25 April, Mittwoch

    Zeit Temperatur Niederschläge Wind Luftdruck Luftfeuchtigkeit
    00:00 +7°C° 0 mm 3 m/S 737 mmHg 95%
    01:00 +7°C° 0 mm 3 m/S 737 mmHg 94%
    02:00 +7°C° 0 mm 3 m/S 737 mmHg 94%
    03:00 +5°C° 0 mm 3 m/S 737 mmHg 93%
    04:00 +5°C° 0 mm 3 m/S 737 mmHg 93%
    05:00 +5°C° 0 mm 3 m/S 737 mmHg 93%
    06:00 +7°C° 0 mm 3 m/S 737 mmHg 86%
    07:00 +7°C° 0 mm 4 m/S 737 mmHg 78%
    08:00 +10°C° 0 mm 4 m/S 737 mmHg 71%
    09:00 +10°C° 0 mm 5 m/S 737 mmHg 70%
    10:00 +12°C° 0 mm 5 m/S 737 mmHg 68%
    11:00 +13°C° 0 mm 6 m/S 737 mmHg 67%
    12:00 +13°C° 0,1 mm 6 m/S 737 mmHg 65%
    13:00 +13°C° 0,1 mm 6 m/S 736 mmHg 64%
    14:00 +13°C° 0,1 mm 6 m/S 736 mmHg 63%
    15:00 +13°C° 0 mm 5 m/S 736 mmHg 61%
    16:00 +13°C° 0 mm 5 m/S 736 mmHg 60%
    17:00 +13°C° 0 mm 4 m/S 736 mmHg 58%
    18:00 +12°C° 0 mm 3 m/S 736 mmHg 62%
    19:00 +10°C° 0 mm 3 m/S 736 mmHg 67%
    20:00 +9°C° 0 mm 2 m/S 736 mmHg 72%
    21:00 +9°C° 0,1 mm 2 m/S 736 mmHg 76%
    22:00 +8°C° 0,1 mm 2 m/S 736 mmHg 79%
    23:00 +8°C° 0,1 mm 2 m/S 736 mmHg 83%

    26 April, Donnerstag

    Zeit Temperatur Niederschläge Wind Luftdruck Luftfeuchtigkeit
    00:00 +8°C° 0,4 mm 2 m/S 735 mmHg 86%
    01:00 +8°C° 0,4 mm 2 m/S 735 mmHg 90%
    02:00 +8°C° 0,4 mm 2 m/S 735 mmHg 93%
    03:00 +8°C° 0,8 mm 3 m/S 734 mmHg 94%
    04:00 +9°C° 0,8 mm 3 m/S 733 mmHg 95%
    05:00 +9°C° 0,8 mm 3 m/S 733 mmHg 96%
    06:00 +10°C° 0,5 mm 4 m/S 733 mmHg 93%
    07:00 +10°C° 0,5 mm 5 m/S 733 mmHg 91%
    08:00 +11°C° 0,5 mm 6 m/S 733 mmHg 89%
    09:00 +11°C° 0,1 mm 6 m/S 733 mmHg 85%
    10:00 +11°C° 0,1 mm 6 m/S 734 mmHg 82%
    11:00 +11°C° 0,1 mm 6 m/S 734 mmHg 78%
    12:00 +13°C° 0,1 mm 6 m/S 734 mmHg 72%
    13:00 +14°C° 0,1 mm 6 m/S 735 mmHg 66%
    14:00 +15°C° 0,1 mm 7 m/S 735 mmHg 60%
    15:00 +14°C° 0 mm 6 m/S 736 mmHg 61%
    16:00 +14°C° 0 mm 5 m/S 736 mmHg 61%
    17:00 +13°C° 0 mm 5 m/S 736 mmHg 61%
    18:00 +12°C° 0 mm 4 m/S 737 mmHg 68%
    19:00 +11°C° 0 mm 3 m/S 737 mmHg 74%
    20:00 +9°C° 0 mm 2 m/S 738 mmHg 80%
    21:00 +9°C° 0 mm 2 m/S 738 mmHg 82%
    22:00 +8°C° 0 mm 2 m/S 738 mmHg 85%
    23:00 +8°C° 0 mm 2 m/S 739 mmHg 87%

    27 April, Freitag

    Zeit Temperatur Niederschläge Wind Luftdruck Luftfeuchtigkeit
    00:00 +8°C° 0 mm 2 m/S 739 mmHg 88%
    01:00 +7°C° 0 mm 2 m/S 739 mmHg 89%
    02:00 +7°C° 0 mm 2 m/S 739 mmHg 90%
    03:00 +7°C° 0 mm 2 m/S 739 mmHg 90%
    04:00 +7°C° 0 mm 2 m/S 739 mmHg 90%
    05:00 +7°C° 0 mm 2 m/S 739 mmHg 91%
    06:00 +8°C° 0,1 mm 2 m/S 739 mmHg 87%
    07:00 +9°C° 0,1 mm 2 m/S 739 mmHg 82%
    08:00 +10°C° 0,1 mm 2 m/S 740 mmHg 78%
    09:00 +10°C° 0,3 mm 2 m/S 740 mmHg 78%
    10:00 +10°C° 0,3 mm 3 m/S 740 mmHg 77%
    11:00 +11°C° 0,3 mm 3 m/S 740 mmHg 77%
    12:00 +12°C° 0,2 mm 3 m/S 740 mmHg 71%
    13:00 +12°C° 0,2 mm 3 m/S 740 mmHg 66%
    14:00 +13°C° 0,2 mm 3 m/S 740 mmHg 61%
    15:00 +13°C° 0,4 mm 4 m/S 740 mmHg 63%
    16:00 +12°C° 0,4 mm 4 m/S 740 mmHg 65%
    17:00 +12°C° 0,4 mm 4 m/S 740 mmHg 67%
    18:00 +10°C° 0 mm 3 m/S 741 mmHg 72%
    19:00 +9°C° 0 mm 3 m/S 741 mmHg 78%
    20:00 +8°C° 0 mm 3 m/S 742 mmHg 83%
    21:00 +7°C° 0 mm 3 m/S 742 mmHg 84%
    22:00 +7°C° 0 mm 3 m/S 743 mmHg 84%
    23:00 +5°C° 0 mm 3 m/S 743 mmHg 85%

    28 April, Samstag

    Zeit Temperatur Niederschläge Wind Luftdruck Luftfeuchtigkeit
    00:00 +5°C° 0 mm 3 m/S 744 mmHg 86%
    01:00 +4°C° 0 mm 3 m/S 744 mmHg 88%
    02:00 +4°C° 0 mm 3 m/S 744 mmHg 89%
    03:00 +3°C° 0 mm 3 m/S 745 mmHg 90%
    04:00 +3°C° 0 mm 3 m/S 745 mmHg 91%
    05:00 +3°C° 0 mm 3 m/S 746 mmHg 92%
    06:00 +4°C° 0 mm 3 m/S 746 mmHg 85%
    07:00 +7°C° 0 mm 3 m/S 746 mmHg 77%
    08:00 +9°C° 0 mm 3 m/S 747 mmHg 70%
    09:00 +10°C° 0 mm 4 m/S 747 mmHg 63%
    10:00 +11°C° 0 mm 4 m/S 747 mmHg 56%
    11:00 +13°C° 0 mm 4 m/S 748 mmHg 49%
    12:00 +13°C° 0 mm 4 m/S 747 mmHg 47%
    13:00 +14°C° 0 mm 4 m/S 747 mmHg 44%
    14:00 +14°C° 0 mm 4 m/S 747 mmHg 41%
    15:00 +14°C° 0 mm 3 m/S 747 mmHg 42%
    16:00 +14°C° 0 mm 3 m/S 747 mmHg 43%
    17:00 +15°C° 0 mm 2 m/S 747 mmHg 44%
    18:00 +13°C° 0 mm 2 m/S 747 mmHg 49%
    19:00 +12°C° 0 mm 1 m/S 747 mmHg 54%
    20:00 +10°C° 0 mm 1 m/S 747 mmHg 59%
    21:00 +9°C° 0 mm 1 m/S 748 mmHg 60%
    22:00 +9°C° 0 mm 1 m/S 748 mmHg 61%
    23:00 +9°C° 0 mm 1 m/S 748 mmHg 62%
    Mehr zeigen